CZ-6A DEB

Satellite information

Favourite Embed

Satellite Type and Status

DEBRISIN ORBIT

Key statistics

Satellite CZ-6A DEB at a glance.

Uptime

1128

Days in orbit

Revolutions

≈ 14.1

Per day

Orbit

SSO

Sun Synchronous Orbit

Inclination

98.8

Latest

Satellite identification and parameters

Extended collection of information and parameters for CZ-6A DEB.

Object identification

Identified? True

Debris? True

Object name: CZ-6A DEB

International designator: 2022-151MK

Object number (NORAD): 54583

Object ID (CCSDS): 54583

Country: PEOPLES REPUBLIC OF CHINA (PRC)

Current information (Y/N): Y

RCS size: SMALL

Orbital parameters

Period: 102.317 minutes

Inclination: 98.8488 deg

SMA: 7246.453 km

Apoapsis: 931.205 km

Periapsis: 805.431 km

RAAN: 332.5011 deg

Eccentricy: 0.0086783

Argument of periapsis: 191.0765 deg

Mean anomaly: 168.8496 deg

Mean motion: 14.07390338 rev/day

Mean motion (dot): 0.00003663 rev/day2

B* drag term: 0.002129 1/REarth

Two-line elements (TLE)

Creation date: Dec. 12, 2025, 7:26 a.m.

Reference frame: TEME

Reference center: EARTH

Epoch: Dec. 11, 2025, 10:54 p.m. UTC

TLE line 0: 0 CZ-6A DEB

TLE line 1: 1 54583U 22151MK 25345.95430897 .00003663 00000-0 21290-2 0 9994

TLE line 2: 2 54583 98.8488 332.5011 0086783 191.0765 168.8496 14.07390338157180

Live tracking on map

Real-time ground track for satellite CZ-6A DEB.

In-orbit conjunctions

A list of the most updated potential collisions computed for object CZ-6A DEB.

Target Orbit TCA Probability of collision Miss distance Type
ARIANE 1 DEB SSO 2024-11-28 02:07:03 0.0001808213 61.0 (m) DEBRIS
COSMOS 1275 DEB LEO 2024-11-13 01:52:44 0.0001549225 159.0 (m) DEBRIS
THOR ABLESTAR DEB LEO 2024-05-27 20:36:37 0.0001781582 93.0 (m) DEBRIS

Associated space launch

Chinese satellite reported for atmospheric/ocean/environmental/spatial parameter research purposes, details TBD.

CZ-6A DEB was lifted into orbit during the mission ‘Long March 6A | Yunhai 3’, on board a Long March 6A space rocket.

The launch took place on Nov. 11, 2022, 10:52 p.m. from Launch Complex 9A.

For more information about the launch, click the button.

Launch to space Long March 6A | Yunhai 3
Long March 6A | Yunhai 3

Agency: N/A

Status: Launch Successful

Launch date: Nov. 11, 2022, 10:52 p.m. UTC

Rocket: Long March 6A

Launch pad: Launch Complex 9A

Location: Taiyuan Satellite Launch Center, People's Republic of China

...

Latest news about this satellite

There are no fresh news available about this satellite. Check back as we update our databases every day.


Newsletter sign-up

Weekly statistics, charts and insights to help you stay on top of the space industry.